Date_Time,Julian_Date,Latitude,Longitude,Instrument_Depth,U,V,Speed,Direction
(yyyy-mm-dd hh:mn:ss UTC),(JD),(+ deg. North),(+ deg. East),(m),(cm/s),(cm/s),(cm/s),(deg True)
1983-08-31 19:30:00 UTC,2445578.312500,28.7467,-95.2267,0192,2.30,21.88,22.0000,6.0000
1983-08-31 20:00:00 UTC,2445578.333333,28.7467,-95.2267,0192,1.20,22.97,23.0000,3.0000
1983-08-31 20:30:00 UTC,2445578.354167,28.7467,-95.2267,0192,0.84,23.99,24.0000,2.0000
1983-08-31 21:00:00 UTC,2445578.375000,28.7467,-95.2267,0192,1.67,23.94,24.0000,4.0000
1983-08-31 21:30:00 UTC,2445578.395833,28.7467,-95.2267,0192,2.51,23.87,24.0000,6.0000
1983-08-31 22:00:00 UTC,2445578.416667,28.7467,-95.2267,0192,3.34,23.77,24.0000,8.0000
1983-08-31 22:30:00 UTC,2445578.437500,28.7467,-95.2267,0192,3.75,23.70,24.0000,9.0000
1983-08-31 23:00:00 UTC,2445578.458333,28.7467,-95.2267,0192,3.91,24.69,25.0000,9.0000
1983-08-31 23:30:00 UTC,2445578.479167,28.7467,-95.2267,0192,4.96,25.52,26.0000,11.0000
1983-09-01 00:00:00 UTC,2445578.500000,28.7467,-95.2267,0192,5.85,25.33,26.0000,13.0000
1983-09-01 00:30:00 UTC,2445578.520833,28.7467,-95.2267,0192,6.05,24.26,25.0000,14.0000
1983-09-01 01:00:00 UTC,2445578.541667,28.7467,-95.2267,0192,5.62,24.36,25.0000,13.0000
1983-09-01 01:30:00 UTC,2445578.562500,28.7467,-95.2267,0192,6.05,24.26,25.0000,14.0000
1983-09-01 02:00:00 UTC,2445578.583333,28.7467,-95.2267,0192,6.47,24.15,25.0000,15.0000
1983-09-01 02:30:00 UTC,2445578.604167,28.7467,-95.2267,0192,6.47,24.15,25.0000,15.0000
1983-09-01 03:00:00 UTC,2445578.625000,28.7467,-95.2267,0192,7.02,22.95,24.0000,17.0000
1983-09-01 03:30:00 UTC,2445578.645833,28.7467,-95.2267,0192,7.81,22.69,24.0000,19.0000
1983-09-01 04:00:00 UTC,2445578.666667,28.7467,-95.2267,0192,6.72,22.00,23.0000,17.0000
1983-09-01 04:30:00 UTC,2445578.687500,28.7467,-95.2267,0192,6.06,21.15,22.0000,16.0000
1983-09-01 05:00:00 UTC,2445578.708333,28.7467,-95.2267,0192,5.51,19.23,20.0000,16.0000
1983-09-01 05:30:00 UTC,2445578.729167,28.7467,-95.2267,0192,5.51,19.23,20.0000,16.0000
1983-09-01 06:00:00 UTC,2445578.750000,28.7467,-95.2267,0192,4.84,19.41,20.0000,14.0000
1983-09-01 06:30:00 UTC,2445578.770833,28.7467,-95.2267,0192,4.92,18.35,19.0000,15.0000
1983-09-01 07:00:00 UTC,2445578.791667,28.7467,-95.2267,0192,5.26,17.21,18.0000,17.0000
1983-09-01 07:30:00 UTC,2445578.812500,28.7467,-95.2267,0192,5.26,17.21,18.0000,17.0000
1983-09-01 08:00:00 UTC,2445578.833333,28.7467,-95.2267,0192,4.11,16.50,17.0000,14.0000
1983-09-01 08:30:00 UTC,2445578.854167,28.7467,-95.2267,0192,3.82,16.56,17.0000,13.0000
1983-09-01 09:00:00 UTC,2445578.875000,28.7467,-95.2267,0192,4.69,16.34,17.0000,16.0000
1983-09-01 09:30:00 UTC,2445578.895833,28.7467,-95.2267,0192,6.64,15.65,17.0000,23.0000
1983-09-01 10:00:00 UTC,2445578.916667,28.7467,-95.2267,0192,7.51,14.13,16.0000,28.0000
1983-09-01 10:30:00 UTC,2445578.937500,28.7467,-95.2267,0192,8.48,13.57,16.0000,32.0000
1983-09-01 11:00:00 UTC,2445578.958333,28.7467,-95.2267,0192,9.26,14.26,17.0000,33.0000
1983-09-01 11:30:00 UTC,2445578.979167,28.7467,-95.2267,0192,8.24,14.87,17.0000,29.0000
1983-09-01 12:00:00 UTC,2445579.000000,28.7467,-95.2267,0192,6.25,14.73,16.0000,23.0000
1983-09-01 12:30:00 UTC,2445579.020833,28.7467,-95.2267,0192,4.68,15.30,16.0000,17.0000
1983-09-01 13:00:00 UTC,2445579.041667,28.7467,-95.2267,0192,3.24,16.69,17.0000,11.0000
1983-09-01 13:30:00 UTC,2445579.062500,28.7467,-95.2267,0192,2.97,18.77,19.0000,9.0000
1983-09-01 14:00:00 UTC,2445579.083333,28.7467,-95.2267,0192,2.78,19.81,20.0000,8.0000
1983-09-01 14:30:00 UTC,2445579.104167,28.7467,-95.2267,0192,2.20,20.88,21.0000,6.0000
1983-09-01 15:00:00 UTC,2445579.125000,28.7467,-95.2267,0192,2.40,22.87,23.0000,6.0000
1983-09-01 15:30:00 UTC,2445579.145833,28.7467,-95.2267,0192,4.58,23.56,24.0000,11.0000
1983-09-01 16:00:00 UTC,2445579.166667,28.7467,-95.2267,0192,7.42,22.83,24.0000,18.0000
1983-09-01 16:30:00 UTC,2445579.187500,28.7467,-95.2267,0192,8.62,21.33,23.0000,22.0000
1983-09-01 17:00:00 UTC,2445579.208333,28.7467,-95.2267,0192,7.49,18.54,20.0000,22.0000
1983-09-01 17:30:00 UTC,2445579.229167,28.7467,-95.2267,0192,5.53,16.07,17.0000,19.0000
1983-09-01 18:00:00 UTC,2445579.250000,28.7467,-95.2267,0192,3.33,15.65,16.0000,12.0000
1983-09-01 18:30:00 UTC,2445579.270833,28.7467,-95.2267,0192,2.66,16.79,17.0000,9.0000
1983-09-01 19:00:00 UTC,2445579.291667,28.7467,-95.2267,0192,3.63,14.55,15.0000,14.0000
1983-09-01 19:30:00 UTC,2445579.312500,28.7467,-95.2267,0192,5.02,13.07,14.0000,21.0000
1983-09-01 20:00:00 UTC,2445579.333333,28.7467,-95.2267,0192,4.56,13.24,14.0000,19.0000
1983-09-01 20:30:00 UTC,2445579.354167,28.7467,-95.2267,0192,5.21,15.13,16.0000,19.0000
1983-09-01 21:00:00 UTC,2445579.375000,28.7467,-95.2267,0192,6.76,14.50,16.0000,25.0000
1983-09-01 21:30:00 UTC,2445579.395833,28.7467,-95.2267,0192,7.76,13.99,16.0000,29.0000
1983-09-01 22:00:00 UTC,2445579.416667,28.7467,-95.2267,0192,8.24,13.71,16.0000,31.0000
1983-09-01 22:30:00 UTC,2445579.437500,28.7467,-95.2267,0192,8.39,12.44,15.0000,34.0000
1983-09-01 23:00:00 UTC,2445579.458333,28.7467,-95.2267,0192,8.60,12.29,15.0000,35.0000
1983-09-01 23:30:00 UTC,2445579.479167,28.7467,-95.2267,0192,8.76,14.57,17.0000,31.0000
1983-09-02 00:00:00 UTC,2445579.500000,28.7467,-95.2267,0192,8.45,15.89,18.0000,28.0000
1983-09-02 00:30:00 UTC,2445579.520833,28.7467,-95.2267,0192,8.73,15.74,18.0000,29.0000
1983-09-02 01:00:00 UTC,2445579.541667,28.7467,-95.2267,0192,9.80,15.10,18.0000,33.0000
1983-09-02 01:30:00 UTC,2445579.562500,28.7467,-95.2267,0192,9.80,15.10,18.0000,33.0000
1983-09-02 02:00:00 UTC,2445579.583333,28.7467,-95.2267,0192,7.18,15.41,17.0000,25.0000
1983-09-02 02:30:00 UTC,2445579.604167,28.7467,-95.2267,0192,5.38,14.00,15.0000,21.0000
1983-09-02 03:00:00 UTC,2445579.625000,28.7467,-95.2267,0192,5.49,11.78,13.0000,25.0000
1983-09-02 03:30:00 UTC,2445579.645833,28.7467,-95.2267,0192,5.26,10.79,12.0000,26.0000
1983-09-02 04:00:00 UTC,2445579.666667,28.7467,-95.2267,0192,3.76,10.34,11.0000,20.0000
1983-09-02 04:30:00 UTC,2445579.687500,28.7467,-95.2267,0192,2.85,10.63,11.0000,15.0000
1983-09-02 05:00:00 UTC,2445579.708333,28.7467,-95.2267,0192,2.29,11.78,12.0000,11.0000
1983-09-02 05:30:00 UTC,2445579.729167,28.7467,-95.2267,0192,1.72,10.86,11.0000,9.0000
1983-09-02 06:00:00 UTC,2445579.750000,28.7467,-95.2267,0192,1.25,8.91,9.0000,8.0000
1983-09-02 06:30:00 UTC,2445579.770833,28.7467,-95.2267,0192,0.37,6.99,7.0000,3.0000
1983-09-02 07:00:00 UTC,2445579.791667,28.7467,-95.2267,0192,-0.49,6.98,7.0000,356.0000
1983-09-02 07:30:00 UTC,2445579.812500,28.7467,-95.2267,0192,0.12,7.00,7.0000,1.0000
1983-09-02 08:00:00 UTC,2445579.833333,28.7467,-95.2267,0192,1.53,7.85,8.0000,11.0000
1983-09-02 08:30:00 UTC,2445579.854167,28.7467,-95.2267,0192,3.23,8.40,9.0000,21.0000
1983-09-02 09:00:00 UTC,2445579.875000,28.7467,-95.2267,0192,4.47,6.63,8.0000,34.0000
1983-09-02 09:30:00 UTC,2445579.895833,28.7467,-95.2267,0192,5.12,4.77,7.0000,47.0000
1983-09-02 10:00:00 UTC,2445579.916667,28.7467,-95.2267,0192,4.32,4.17,6.0000,46.0000
1983-09-02 10:30:00 UTC,2445579.937500,28.7467,-95.2267,0192,3.78,4.66,6.0000,39.0000
1983-09-02 11:00:00 UTC,2445579.958333,28.7467,-95.2267,0192,3.36,4.97,6.0000,34.0000
1983-09-02 11:30:00 UTC,2445579.979167,28.7467,-95.2267,0192,2.42,4.37,5.0000,29.0000
1983-09-02 12:00:00 UTC,2445580.000000,28.7467,-95.2267,0192,2.74,6.44,7.0000,23.0000
1983-09-02 12:30:00 UTC,2445580.020833,28.7467,-95.2267,0192,3.26,9.46,10.0000,19.0000
1983-09-02 13:00:00 UTC,2445580.041667,28.7467,-95.2267,0192,3.31,11.54,12.0000,16.0000
1983-09-02 13:30:00 UTC,2445580.062500,28.7467,-95.2267,0192,2.90,11.64,12.0000,14.0000
1983-09-02 14:00:00 UTC,2445580.083333,28.7467,-95.2267,0192,2.85,10.63,11.0000,15.0000
1983-09-02 14:30:00 UTC,2445580.104167,28.7467,-95.2267,0192,3.40,10.46,11.0000,18.0000
1983-09-02 15:00:00 UTC,2445580.125000,28.7467,-95.2267,0192,2.76,9.61,10.0000,16.0000
1983-09-02 15:30:00 UTC,2445580.145833,28.7467,-95.2267,0192,1.69,6.79,7.0000,14.0000
1983-09-02 16:00:00 UTC,2445580.166667,28.7467,-95.2267,0192,1.75,5.74,6.0000,17.0000
1983-09-02 16:30:00 UTC,2445580.187500,28.7467,-95.2267,0192,1.71,4.70,5.0000,20.0000
1983-09-02 17:00:00 UTC,2445580.208333,28.7467,-95.2267,0192,0.63,3.95,4.0000,9.0000
1983-09-02 17:30:00 UTC,2445580.229167,28.7467,-95.2267,0192,-0.83,3.91,4.0000,348.0000
1983-09-02 18:00:00 UTC,2445580.250000,28.7467,-95.2267,0192,-1.70,1.06,2.0000,302.0000
1983-09-02 18:30:00 UTC,2445580.270833,28.7467,-95.2267,0192,-1.56,-3.68,4.0000,203.0000
1983-09-02 19:00:00 UTC,2445580.291667,28.7467,-95.2267,0192,-1.75,-5.74,6.0000,197.0000
1983-09-02 19:30:00 UTC,2445580.312500,28.7467,-95.2267,0192,-2.16,-6.66,7.0000,198.0000
1983-09-02 20:00:00 UTC,2445580.333333,28.7467,-95.2267,0192,-2.33,-8.69,9.0000,195.0000
1983-09-02 20:30:00 UTC,2445580.354167,28.7467,-95.2267,0192,-2.47,-10.72,11.0000,193.0000
1983-09-02 21:00:00 UTC,2445580.375000,28.7467,-95.2267,0192,-3.39,-13.58,14.0000,194.0000
1983-09-02 21:30:00 UTC,2445580.395833,28.7467,-95.2267,0192,-4.94,-15.22,16.0000,198.0000
1983-09-02 22:00:00 UTC,2445580.416667,28.7467,-95.2267,0192,-5.86,-13.81,15.0000,203.0000
1983-09-02 22:30:00 UTC,2445580.437500,28.7467,-95.2267,0192,-5.92,-12.69,14.0000,205.0000
1983-09-02 23:00:00 UTC,2445580.458333,28.7467,-95.2267,0192,-5.69,-12.79,14.0000,204.0000
1983-09-02 23:30:00 UTC,2445580.479167,28.7467,-95.2267,0192,-4.88,-14.18,15.0000,199.0000
1983-09-03 00:00:00 UTC,2445580.500000,28.7467,-95.2267,0192,-3.63,-14.55,15.0000,194.0000
1983-09-03 00:30:00 UTC,2445580.520833,28.7467,-95.2267,0192,-2.60,-14.77,15.0000,190.0000
1983-09-03 01:00:00 UTC,2445580.541667,28.7467,-95.2267,0192,-2.09,-14.85,15.0000,188.0000
1983-09-03 01:30:00 UTC,2445580.562500,28.7467,-95.2267,0192,-0.79,-14.98,15.0000,183.0000
1983-09-03 02:00:00 UTC,2445580.583333,28.7467,-95.2267,0192,0.00,-15.00,15.0000,180.0000
1983-09-03 02:30:00 UTC,2445580.604167,28.7467,-95.2267,0192,0.26,-15.00,15.0000,179.0000
1983-09-03 03:00:00 UTC,2445580.625000,28.7467,-95.2267,0192,-0.26,-15.00,15.0000,181.0000
1983-09-03 03:30:00 UTC,2445580.645833,28.7467,-95.2267,0192,-1.46,-13.92,14.0000,186.0000
1983-09-03 04:00:00 UTC,2445580.666667,28.7467,-95.2267,0192,-2.29,-11.78,12.0000,191.0000
1983-09-03 04:30:00 UTC,2445580.687500,28.7467,-95.2267,0192,-3.22,-10.52,11.0000,197.0000
1983-09-03 05:00:00 UTC,2445580.708333,28.7467,-95.2267,0192,-3.91,-9.21,10.0000,203.0000
1983-09-03 05:30:00 UTC,2445580.729167,28.7467,-95.2267,0192,-3.18,-6.24,7.0000,207.0000
1983-09-03 06:00:00 UTC,2445580.750000,28.7467,-95.2267,0192,-2.35,-4.41,5.0000,208.0000
1983-09-03 06:30:00 UTC,2445580.770833,28.7467,-95.2267,0192,-1.56,-3.68,4.0000,203.0000
1983-09-03 07:00:00 UTC,2445580.791667,28.7467,-95.2267,0192,-1.46,-4.78,5.0000,197.0000
1983-09-03 07:30:00 UTC,2445580.812500,28.7467,-95.2267,0192,-2.05,-6.69,7.0000,197.0000
1983-09-03 08:00:00 UTC,2445580.833333,28.7467,-95.2267,0192,-2.78,-8.56,9.0000,198.0000
1983-09-03 08:30:00 UTC,2445580.854167,28.7467,-95.2267,0192,-2.78,-8.56,9.0000,198.0000
1983-09-03 09:00:00 UTC,2445580.875000,28.7467,-95.2267,0192,-2.63,-8.61,9.0000,197.0000
1983-09-03 09:30:00 UTC,2445580.895833,28.7467,-95.2267,0192,-2.02,-8.77,9.0000,193.0000
1983-09-03 10:00:00 UTC,2445580.916667,28.7467,-95.2267,0192,-1.25,-8.91,9.0000,188.0000
1983-09-03 10:30:00 UTC,2445580.937500,28.7467,-95.2267,0192,-0.56,-7.98,8.0000,184.0000
1983-09-03 11:00:00 UTC,2445580.958333,28.7467,-95.2267,0192,-0.14,-8.00,8.0000,181.0000
1983-09-03 11:30:00 UTC,2445580.979167,28.7467,-95.2267,0192,0.24,-7.00,7.0000,178.0000
1983-09-03 12:00:00 UTC,2445581.000000,28.7467,-95.2267,0192,0.49,-6.98,7.0000,176.0000
1983-09-03 12:30:00 UTC,2445581.020833,28.7467,-95.2267,0192,0.37,-6.99,7.0000,177.0000
1983-09-03 13:00:00 UTC,2445581.041667,28.7467,-95.2267,0192,-0.24,-7.00,7.0000,182.0000
1983-09-03 13:30:00 UTC,2445581.062500,28.7467,-95.2267,0192,-0.61,-6.97,7.0000,185.0000
1983-09-03 14:00:00 UTC,2445581.083333,28.7467,-95.2267,0192,-1.04,-5.91,6.0000,190.0000
1983-09-03 14:30:00 UTC,2445581.104167,28.7467,-95.2267,0192,-1.55,-4.76,5.0000,198.0000
1983-09-03 15:00:00 UTC,2445581.125000,28.7467,-95.2267,0192,-1.46,-4.78,5.0000,197.0000
1983-09-03 15:30:00 UTC,2445581.145833,28.7467,-95.2267,0192,-1.25,-5.87,6.0000,192.0000
1983-09-03 16:00:00 UTC,2445581.166667,28.7467,-95.2267,0192,-1.25,-5.87,6.0000,192.0000
1983-09-03 16:30:00 UTC,2445581.187500,28.7467,-95.2267,0192,-1.87,-4.64,5.0000,202.0000
1983-09-03 17:00:00 UTC,2445581.208333,28.7467,-95.2267,0192,-2.54,-5.44,6.0000,205.0000
1983-09-03 17:30:00 UTC,2445581.229167,28.7467,-95.2267,0192,-2.63,-8.61,9.0000,197.0000
1983-09-03 18:00:00 UTC,2445581.250000,28.7467,-95.2267,0192,-2.85,-10.63,11.0000,195.0000
1983-09-03 18:30:00 UTC,2445581.270833,28.7467,-95.2267,0192,-3.58,-9.34,10.0000,201.0000
1983-09-03 19:00:00 UTC,2445581.291667,28.7467,-95.2267,0192,-4.85,-8.75,10.0000,209.0000
1983-09-03 19:30:00 UTC,2445581.312500,28.7467,-95.2267,0192,-5.83,-9.33,11.0000,212.0000
1983-09-03 20:00:00 UTC,2445581.333333,28.7467,-95.2267,0192,-5.63,-10.60,12.0000,208.0000
1983-09-03 20:30:00 UTC,2445581.354167,28.7467,-95.2267,0192,-4.50,-11.13,12.0000,202.0000
1983-09-03 21:00:00 UTC,2445581.375000,28.7467,-95.2267,0192,-5.07,-10.88,12.0000,205.0000
1983-09-03 21:30:00 UTC,2445581.395833,28.7467,-95.2267,0192,-6.00,-10.39,12.0000,210.0000
1983-09-03 22:00:00 UTC,2445581.416667,28.7467,-95.2267,0192,-4.99,-9.80,11.0000,207.0000
1983-09-03 22:30:00 UTC,2445581.437500,28.7467,-95.2267,0192,-3.26,-9.46,10.0000,199.0000
1983-09-03 23:00:00 UTC,2445581.458333,28.7467,-95.2267,0192,-2.08,-9.78,10.0000,192.0000
1983-09-03 23:30:00 UTC,2445581.479167,28.7467,-95.2267,0192,-1.56,-9.88,10.0000,189.0000
1983-09-04 00:00:00 UTC,2445581.500000,28.7467,-95.2267,0192,-1.05,-9.95,10.0000,186.0000
1983-09-04 00:30:00 UTC,2445581.520833,28.7467,-95.2267,0192,-0.38,-10.99,11.0000,182.0000
1983-09-04 01:00:00 UTC,2445581.541667,28.7467,-95.2267,0192,0.00,-11.00,11.0000,180.0000
1983-09-04 01:30:00 UTC,2445581.562500,28.7467,-95.2267,0192,0.19,-11.00,11.0000,179.0000
1983-09-04 02:00:00 UTC,2445581.583333,28.7467,-95.2267,0192,0.38,-10.99,11.0000,178.0000
1983-09-04 02:30:00 UTC,2445581.604167,28.7467,-95.2267,0192,0.17,-10.00,10.0000,179.0000
1983-09-04 03:00:00 UTC,2445581.625000,28.7467,-95.2267,0192,-0.17,-10.00,10.0000,181.0000
1983-09-04 03:30:00 UTC,2445581.645833,28.7467,-95.2267,0192,0.00,-11.00,11.0000,180.0000
1983-09-04 04:00:00 UTC,2445581.666667,28.7467,-95.2267,0192,-0.21,-12.00,12.0000,181.0000
1983-09-04 04:30:00 UTC,2445581.687500,28.7467,-95.2267,0192,-1.58,-12.90,13.0000,187.0000
1983-09-04 05:00:00 UTC,2445581.708333,28.7467,-95.2267,0192,-2.92,-12.67,13.0000,193.0000
1983-09-04 05:30:00 UTC,2445581.729167,28.7467,-95.2267,0192,-3.71,-11.41,12.0000,198.0000
1983-09-04 06:00:00 UTC,2445581.750000,28.7467,-95.2267,0192,-4.87,-12.05,13.0000,202.0000
1983-09-04 06:30:00 UTC,2445581.770833,28.7467,-95.2267,0192,-5.92,-12.69,14.0000,205.0000
1983-09-04 07:00:00 UTC,2445581.791667,28.7467,-95.2267,0192,-7.27,-13.12,15.0000,209.0000
1983-09-04 07:30:00 UTC,2445581.812500,28.7467,-95.2267,0192,-7.50,-12.99,15.0000,210.0000
1983-09-04 08:00:00 UTC,2445581.833333,28.7467,-95.2267,0192,-7.01,-14.38,16.0000,206.0000
1983-09-04 08:30:00 UTC,2445581.854167,28.7467,-95.2267,0192,-7.32,-16.44,18.0000,204.0000
1983-09-04 09:00:00 UTC,2445581.875000,28.7467,-95.2267,0192,-8.03,-17.22,19.0000,205.0000
1983-09-04 09:30:00 UTC,2445581.895833,28.7467,-95.2267,0192,-8.17,-16.04,18.0000,207.0000
1983-09-04 10:00:00 UTC,2445581.916667,28.7467,-95.2267,0192,-6.76,-14.50,16.0000,205.0000
1983-09-04 10:30:00 UTC,2445581.937500,28.7467,-95.2267,0192,-5.38,-14.00,15.0000,201.0000
1983-09-04 11:00:00 UTC,2445581.958333,28.7467,-95.2267,0192,-5.99,-14.83,16.0000,202.0000
1983-09-04 11:30:00 UTC,2445581.979167,28.7467,-95.2267,0192,-6.64,-15.65,17.0000,203.0000
1983-09-04 12:00:00 UTC,2445582.000000,28.7467,-95.2267,0192,-5.73,-14.94,16.0000,201.0000
1983-09-04 12:30:00 UTC,2445582.020833,28.7467,-95.2267,0192,-4.39,-14.34,15.0000,197.0000
1983-09-04 13:00:00 UTC,2445582.041667,28.7467,-95.2267,0192,-3.14,-12.61,13.0000,194.0000
1983-09-04 13:30:00 UTC,2445582.062500,28.7467,-95.2267,0192,-3.80,-12.43,13.0000,197.0000
1983-09-04 14:00:00 UTC,2445582.083333,28.7467,-95.2267,0192,-5.08,-11.97,13.0000,203.0000
1983-09-04 14:30:00 UTC,2445582.104167,28.7467,-95.2267,0192,-5.26,-10.79,12.0000,206.0000
1983-09-04 15:00:00 UTC,2445582.125000,28.7467,-95.2267,0192,-5.07,-10.88,12.0000,205.0000
1983-09-04 15:30:00 UTC,2445582.145833,28.7467,-95.2267,0192,-4.50,-11.13,12.0000,202.0000
1983-09-04 16:00:00 UTC,2445582.166667,28.7467,-95.2267,0192,-3.91,-11.35,12.0000,199.0000
1983-09-04 16:30:00 UTC,2445582.187500,28.7467,-95.2267,0192,-4.23,-12.29,13.0000,199.0000
1983-09-04 17:00:00 UTC,2445582.208333,28.7467,-95.2267,0192,-5.02,-13.07,14.0000,201.0000
1983-09-04 17:30:00 UTC,2445582.229167,28.7467,-95.2267,0192,-6.34,-13.59,15.0000,205.0000
1983-09-04 18:00:00 UTC,2445582.250000,28.7467,-95.2267,0192,-7.08,-10.90,13.0000,213.0000
1983-09-04 18:30:00 UTC,2445582.270833,28.7467,-95.2267,0192,-8.34,-8.63,12.0000,224.0000
1983-09-04 19:00:00 UTC,2445582.291667,28.7467,-95.2267,0192,-7.64,-7.91,11.0000,224.0000
1983-09-04 19:30:00 UTC,2445582.312500,28.7467,-95.2267,0192,-8.03,-8.92,12.0000,222.0000
1983-09-04 20:00:00 UTC,2445582.333333,28.7467,-95.2267,0192,-8.34,-8.63,12.0000,224.0000
1983-09-04 20:30:00 UTC,2445582.354167,28.7467,-95.2267,0192,-9.18,-10.57,14.0000,221.0000
1983-09-04 21:00:00 UTC,2445582.375000,28.7467,-95.2267,0192,-9.63,-12.78,16.0000,217.0000
1983-09-04 21:30:00 UTC,2445582.395833,28.7467,-95.2267,0192,-9.85,-12.61,16.0000,218.0000
1983-09-04 22:00:00 UTC,2445582.416667,28.7467,-95.2267,0192,-10.50,-12.08,16.0000,221.0000
1983-09-04 22:30:00 UTC,2445582.437500,28.7467,-95.2267,0192,-9.37,-10.40,14.0000,222.0000
1983-09-04 23:00:00 UTC,2445582.458333,28.7467,-95.2267,0192,-9.37,-10.40,14.0000,222.0000
1983-09-04 23:30:00 UTC,2445582.479167,28.7467,-95.2267,0192,-8.70,-9.66,13.0000,222.0000
1983-09-05 00:00:00 UTC,2445582.500000,28.7467,-95.2267,0192,-8.70,-9.66,13.0000,222.0000
1983-09-05 00:30:00 UTC,2445582.520833,28.7467,-95.2267,0192,-6.62,-8.79,11.0000,217.0000
1983-09-05 01:00:00 UTC,2445582.541667,28.7467,-95.2267,0192,-4.69,-8.83,10.0000,208.0000
1983-09-05 01:30:00 UTC,2445582.562500,28.7467,-95.2267,0192,-3.23,-8.40,9.0000,201.0000
1983-09-05 02:00:00 UTC,2445582.583333,28.7467,-95.2267,0192,-2.07,-7.73,8.0000,195.0000
1983-09-05 02:30:00 UTC,2445582.604167,28.7467,-95.2267,0192,-0.49,-6.98,7.0000,184.0000
1983-09-05 03:00:00 UTC,2445582.625000,28.7467,-95.2267,0192,1.11,-7.92,8.0000,172.0000
1983-09-05 03:30:00 UTC,2445582.645833,28.7467,-95.2267,0192,2.48,-8.65,9.0000,164.0000
1983-09-05 04:00:00 UTC,2445582.666667,28.7467,-95.2267,0192,3.09,-9.51,10.0000,162.0000
1983-09-05 04:30:00 UTC,2445582.687500,28.7467,-95.2267,0192,3.11,-11.59,12.0000,165.0000
1983-09-05 05:00:00 UTC,2445582.708333,28.7467,-95.2267,0192,2.03,-12.84,13.0000,171.0000
1983-09-05 05:30:00 UTC,2445582.729167,28.7467,-95.2267,0192,0.49,-13.99,14.0000,178.0000
1983-09-05 06:00:00 UTC,2445582.750000,28.7467,-95.2267,0192,0.00,-15.00,15.0000,180.0000
1983-09-05 06:30:00 UTC,2445582.770833,28.7467,-95.2267,0192,0.00,-14.00,14.0000,180.0000
1983-09-05 07:00:00 UTC,2445582.791667,28.7467,-95.2267,0192,-1.46,-13.92,14.0000,186.0000
1983-09-05 07:30:00 UTC,2445582.812500,28.7467,-95.2267,0192,-3.05,-15.71,16.0000,191.0000
1983-09-05 08:00:00 UTC,2445582.833333,28.7467,-95.2267,0192,-5.25,-16.17,17.0000,198.0000
1983-09-05 08:30:00 UTC,2445582.854167,28.7467,-95.2267,0192,-8.76,-14.57,17.0000,211.0000
1983-09-05 09:00:00 UTC,2445582.875000,28.7467,-95.2267,0192,-11.57,-13.79,18.0000,220.0000
1983-09-05 09:30:00 UTC,2445582.895833,28.7467,-95.2267,0192,-11.33,-13.99,18.0000,219.0000
1983-09-05 10:00:00 UTC,2445582.916667,28.7467,-95.2267,0192,-11.08,-14.18,18.0000,218.0000
1983-09-05 10:30:00 UTC,2445582.937500,28.7467,-95.2267,0192,-10.83,-14.38,18.0000,217.0000
1983-09-05 11:00:00 UTC,2445582.958333,28.7467,-95.2267,0192,-10.23,-13.58,17.0000,217.0000
1983-09-05 11:30:00 UTC,2445582.979167,28.7467,-95.2267,0192,-8.17,-12.58,15.0000,213.0000
1983-09-05 12:00:00 UTC,2445583.000000,28.7467,-95.2267,0192,-5.49,-11.78,13.0000,205.0000
1983-09-05 12:30:00 UTC,2445583.020833,28.7467,-95.2267,0192,-3.91,-11.35,12.0000,199.0000
1983-09-05 13:00:00 UTC,2445583.041667,28.7467,-95.2267,0192,-3.03,-10.57,11.0000,196.0000
1983-09-05 13:30:00 UTC,2445583.062500,28.7467,-95.2267,0192,-3.71,-11.41,12.0000,198.0000
1983-09-05 14:00:00 UTC,2445583.083333,28.7467,-95.2267,0192,-3.91,-11.35,12.0000,199.0000
1983-09-05 14:30:00 UTC,2445583.104167,28.7467,-95.2267,0192,-3.42,-9.40,10.0000,200.0000
1983-09-05 15:00:00 UTC,2445583.125000,28.7467,-95.2267,0192,-3.37,-8.34,9.0000,202.0000
1983-09-05 15:30:00 UTC,2445583.145833,28.7467,-95.2267,0192,-3.38,-7.25,8.0000,205.0000
1983-09-05 16:00:00 UTC,2445583.166667,28.7467,-95.2267,0192,-3.76,-7.06,8.0000,208.0000
1983-09-05 16:30:00 UTC,2445583.187500,28.7467,-95.2267,0192,-4.24,-6.78,8.0000,212.0000
1983-09-05 17:00:00 UTC,2445583.208333,28.7467,-95.2267,0192,-4.41,-5.44,7.0000,219.0000
1983-09-05 17:30:00 UTC,2445583.229167,28.7467,-95.2267,0192,-3.50,-1.94,4.0000,241.0000
1983-09-05 18:00:00 UTC,2445583.250000,28.7467,-95.2267,0192,-2.57,1.55,3.0000,301.0000
1983-09-05 18:30:00 UTC,2445583.270833,28.7467,-95.2267,0192,-0.81,1.83,2.0000,336.0000
1983-09-05 19:00:00 UTC,2445583.291667,28.7467,-95.2267,0192,-0.09,1.00,1.0000,355.0000
1983-09-05 19:30:00 UTC,2445583.312500,28.7467,-95.2267,0192,-0.78,0.63,1.0000,309.0000
1983-09-05 20:00:00 UTC,2445583.333333,28.7467,-95.2267,0192,-1.68,-1.09,2.0000,237.0000
1983-09-05 20:30:00 UTC,2445583.354167,28.7467,-95.2267,0192,-2.52,-3.11,4.0000,219.0000
1983-09-05 21:00:00 UTC,2445583.375000,28.7467,-95.2267,0192,-2.72,-5.35,6.0000,207.0000
1983-09-05 21:30:00 UTC,2445583.395833,28.7467,-95.2267,0192,-2.39,-6.58,7.0000,200.0000
1983-09-05 22:00:00 UTC,2445583.416667,28.7467,-95.2267,0192,-2.60,-7.56,8.0000,199.0000
1983-09-05 22:30:00 UTC,2445583.437500,28.7467,-95.2267,0192,-3.66,-8.22,9.0000,204.0000
1983-09-05 23:00:00 UTC,2445583.458333,28.7467,-95.2267,0192,-4.38,-8.99,10.0000,206.0000
1983-09-05 23:30:00 UTC,2445583.479167,28.7467,-95.2267,0192,-4.65,-9.97,11.0000,205.0000
1983-09-06 00:00:00 UTC,2445583.500000,28.7467,-95.2267,0192,-4.88,-10.96,12.0000,204.0000
1983-09-06 00:30:00 UTC,2445583.520833,28.7467,-95.2267,0192,-6.79,-12.24,14.0000,209.0000
1983-09-06 01:00:00 UTC,2445583.541667,28.7467,-95.2267,0192,-8.43,-11.18,14.0000,217.0000
1983-09-06 01:30:00 UTC,2445583.562500,28.7467,-95.2267,0192,-7.55,-9.33,12.0000,219.0000
1983-09-06 02:00:00 UTC,2445583.583333,28.7467,-95.2267,0192,-5.03,-7.46,9.0000,214.0000
1983-09-06 02:30:00 UTC,2445583.604167,28.7467,-95.2267,0192,-3.07,-6.29,7.0000,206.0000
1983-09-06 03:00:00 UTC,2445583.625000,28.7467,-95.2267,0192,-2.74,-6.44,7.0000,203.0000
1983-09-06 03:30:00 UTC,2445583.645833,28.7467,-95.2267,0192,-3.25,-7.31,8.0000,204.0000
1983-09-06 04:00:00 UTC,2445583.666667,28.7467,-95.2267,0192,-3.00,-7.42,8.0000,202.0000
1983-09-06 04:30:00 UTC,2445583.687500,28.7467,-95.2267,0192,-2.60,-7.56,8.0000,199.0000
1983-09-06 05:00:00 UTC,2445583.708333,28.7467,-95.2267,0192,-2.18,-8.73,9.0000,194.0000
1983-09-06 05:30:00 UTC,2445583.729167,28.7467,-95.2267,0192,-2.29,-10.76,11.0000,192.0000
1983-09-06 06:00:00 UTC,2445583.750000,28.7467,-95.2267,0192,-3.91,-11.35,12.0000,199.0000
1983-09-06 06:30:00 UTC,2445583.770833,28.7467,-95.2267,0192,-6.10,-11.48,13.0000,208.0000
1983-09-06 07:00:00 UTC,2445583.791667,28.7467,-95.2267,0192,-7.00,-12.12,14.0000,210.0000
1983-09-06 07:30:00 UTC,2445583.812500,28.7467,-95.2267,0192,-6.57,-12.36,14.0000,208.0000
1983-09-06 08:00:00 UTC,2445583.833333,28.7467,-95.2267,0192,-7.50,-12.99,15.0000,210.0000
1983-09-06 08:30:00 UTC,2445583.854167,28.7467,-95.2267,0192,-10.58,-14.56,18.0000,216.0000